Location: Saint-Usage
(47.1052°N, 5.2587°E)
Time: 04:01:36
(UTC+02:00)

Envisat - Visible Passes

Search period start: 27 September 2021 00:00
Search period end: 07 October 2021 00:00
Orbit: 764 x 766 km, 98.2° (Epoch: 26 September)

Date Brightness Start Highest point End Pass type
(mag) Time Alt. Az. Time Alt. Az. Time Alt. Az.
27 Sep 4.3 06:24:17 10° NNE 06:29:08 43° E 06:33:57 10° S visible
28 Sep 5.6 05:48:09 10° NE 05:51:59 21° E 05:55:49 10° SE visible
29 Sep 3.3 06:49:26 10° NNE 06:54:33 73° ESE 06:59:37 10° S visible
30 Sep 4.7 06:12:53 10° NNE 06:17:33 35° E 06:22:10 10° SSE visible
01 Oct 5.9 05:37:03 10° NE 05:40:21 17° E 05:43:37 10° SE visible
02 Oct 3.7 06:37:58 10° NNE 06:43:01 59° E 06:48:00 10° S visible
03 Oct 5.1 06:01:35 10° NE 06:05:57 28° E 06:10:18 10° SSE visible
04 Oct 6.0 05:26:11 10° ENE 05:28:41 14° E 05:31:10 10° ESE visible
04 Oct 3.0 07:03:15 10° NNE 07:08:22 85° WNW 07:13:27 10° SSW visible
05 Oct 4.1 06:26:32 10° NNE 06:31:28 47° E 06:36:19 10° S visible
06 Oct 5.5 05:50:20 10° NE 05:54:20 23° E 05:58:18 10° SE visible
